Location: Unspecified
(0.0000°N, 0.0000°E)
Time: 04:41:22
(UTC+00:00)

deb NOAA 5 - Visible Passes

Search period start: 14 February 2026 00:00
Search period end: 24 February 2026 00:00
Orbit: 1472 x 1833 km, 102.5° (Epoch: 6 February)

Date Brightness Start Highest point End Pass type
(mag) Time Alt. Az. Time Alt. Az. Time Alt. Az.
14 Feb ? 21:01:40 10° SSE 21:21:03 - NNW 21:04:38 24° S visible
15 Feb ? 20:54:45 10° SSE 21:13:49 - NNW 20:57:20 22° SSE visible
16 Feb ? 20:47:51 10° SSE 21:06:34 - NNW 20:50:03 20° SSE visible
17 Feb ? 20:41:00 10° SSE 20:59:21 - NNW 20:42:45 18° SSE visible
18 Feb ? 20:34:10 10° SSE 20:52:07 - N 20:35:27 15° SSE visible
19 Feb ? 20:27:22 10° SSE 20:44:53 - N 20:28:08 13° SSE visible
19 Feb ? 22:27:09 10° SSW 22:27:31 11° SW 22:27:31 11° SW visible
20 Feb ? 20:20:37 10° SSE 20:37:39 - N 20:20:50 11° SSE visible
20 Feb ? 22:19:38 10° SSW 22:20:13 11° SSW 22:20:13 11° SSW visible
21 Feb?20:30:26N20:30:26N20:13:31SEvisible
21 Feb ? 22:12:13 10° SSW 22:12:54 12° SSW 22:12:54 12° SSW visible
22 Feb?20:23:13N20:23:13N20:06:11SEvisible
22 Feb ? 22:04:53 10° SSW 22:05:35 12° SSW 22:05:35 12° SSW visible
23 Feb?20:15:59N20:15:59N19:58:52SEvisible
23 Feb ? 21:57:37 10° SSW 21:58:16 12° SSW 21:58:16 12° SSW visible
